Погода в Монтагу

ЮАР     33°47′11″S   20°07′16″E
темп.,
°C
ветер,
м/с
пор.,
м/с
влажн.,
%
обл.,
%
осадки,
мм/ч
давл.,
гПа
погр.,
м
15 июня, вт
вт1523:00+11ссв11750 0.0 101711
02:00+10с117251 0.0 101610
05:00+12ссз2262100 0.0 101517
08:00+12ссз2262100 0.0 101625
11:00+14с2357100 0.0 1016380
14:00+15с3466100 0.0 1014801
17:00+14ссв127515 0.0 1013187
20:00+12зсз228482 0.1 101418
16 июня, ср
ср1623:00+11ссз22851 0.0 101413
02:00+11ссз22859 0.0 101412
05:00+10с22865 0.0 101412
08:00+10с32863 0.0 101516
11:00+15сз23633 0.0 1016514
14:00+18з33511 0.0 10141299
17:00+16зюз23575 0.0 1014190
20:00+13зсз22755 0.0 101728
17 июня, чт
чт1723:00+12сз33765 0.0 101827
02:00+11ссз33765 0.0 101820
05:00+11ссз33774 0.0 101917
08:00+11ссз33763 0.0 102120
11:00+16зсз345348 0.0 1022554
14:00+15зюз236450 0.0 1023369
17:00+15ююз226860 0.0 1025395
20:00+12юв229051 0.1 102719
18 июня, пт
пт1823:00+11в239154 0.1 1029107
02:00+10в229351 0.1 1029111
05:00+10всв119034 0.0 102986
08:00+9всв21912 0.0 103011
11:00+14в22675 0.0 1030516
14:00+18в124826 0.0 1027876
17:00+17юв125249 0.0 102625
20:00+14св226058 0.0 102711
19 июня, сб
сб1923:00+13ссв225731 0.0 102613
02:00+12с335631 0.0 102418
05:00+12с335334 0.0 102317
08:00+12с32500 0.0 102315
11:00+19с23311 0.0 1022327
14:00+23ссз12230 0.0 1020718
17:00+20ссв22346 0.0 102019
20:00+16с323632 0.0 102114